Location: Cruquius
(52.3348°N, 4.6319°E)
Time: 18:26:00
(UTC+00:00)

Cosmos 2184 Rocket - Pass Details

Date: 12 May 2021
Orbit: 958 x 1003 km, 82.9° (Epoch: 21 June)

Event Time Altitude Azimuth Distance (km) Brightness Sun altitude
Rises 21:30:24 0° 347° (NNW) 3,689 8.5 -14.1°
Reaches altitude 10° 21:32:58 10° 344° (NNW) 2,731 7.6 -14.3°
Maximum altitude 21:39:04 59° 267° (W) 1,115 4.4 -14.7°
Enters shadow 21:44:28 13° 191° (S) 2,465 5.7 -15.1°
